CW4086 Weather Reports


time (UTC)temp
C
wind
direction
speed
KPH
gust
KPH
rain 1hr
cm
rain 24hr
cm
rain mn
cm
humidity
%
barometer
mb
20260509095104 15 355 0.0 0.0 0.00 0.00 0.00 71 1012.8
20260509094604 15 355 0.0 0.0 0.00 0.00 0.00 71 1013.0
20260509094104 15 355 0.0 0.0 0.00 0.00 0.00 71 1013.0
20260509093604 15 355 0.0 1.6 0.00 0.00 0.00 70 1013.0
20260509093105 15 355 0.0 1.6 0.00 0.00 0.00 71 1013.1
20260509092605 15 355 0.0 3.2 0.00 0.00 0.00 71 1013.1
20260509092105 15 355 0.0 3.2 0.00 0.00 0.00 70 1013.2
20260509091605 16 349 0.0 1.6 0.00 0.00 0.00 70 1013.2
20260509091104 16 349 0.0 1.6 0.00 0.00 0.00 70 1013.2
20260509090604 16 348 0.0 1.6 0.00 0.00 0.00 70 1013.2
20260509090104 16 348 0.0 1.6 0.00 0.00 0.00 70 1013.2
20260509085604 16 348 0.0 1.6 0.00 0.00 0.00 71 1013.2
20260509084604 16 341 0.0 1.6 0.00 0.00 0.00 72 1013.4
20260509084104 16 340 0.0 1.6 0.00 0.00 0.00 72 1013.5
20260509083605 16 341 1.6 1.6 0.00 0.00 0.00 71 1013.6
20260509083104 16 336 0.0 1.6 0.00 0.00 0.00 71 1013.6
20260509082606 16 336 0.0 1.6 0.00 0.00 0.00 71 1013.6
20260509082104 16 336 0.0 1.6 0.00 0.00 0.00 71 1013.7
20260509081606 16 336 0.0 1.6 0.00 0.00 0.00 71 1013.7
20260509081105 16 335 0.0 1.6 0.00 0.00 0.00 70 1013.7
20260509080604 16 336 0.0 1.6 0.00 0.00 0.00 70 1013.7
20260509080105 16 336 0.0 1.6 0.00 0.00 0.00 70 1013.7
20260509075604 16 336 0.0 1.6 0.00 0.00 0.00 70 1013.8
20260509075105 16 336 0.0 1.6 0.00 0.00 0.00 70 1013.8
20260509074604 16 334 0.0 1.6 0.00 0.00 0.00 70 1013.9
20260509074104 16 330 0.0 1.6 0.00 0.00 0.00 69 1014.0
20260509073104 16 329 0.0 1.6 0.00 0.00 0.00 69 1014.1
20260509072605 16 328 0.0 1.6 0.00 0.00 0.00 69 1014.1
20260509072104 16 327 0.0 1.6 0.00 0.00 0.00 69 1014.1
20260509071604 16 327 0.0 1.6 0.00 0.00 0.00 69 1014.1
20260509071104 16 327 0.0 0.0 0.00 0.00 0.00 69 1014.1
20260509070604 16 327 0.0 0.0 0.00 0.00 0.00 69 1014.2
20260509070105 16 327 0.0 0.0 0.00 0.00 0.00 69 1014.2
20260509065604 17 327 0.0 0.0 0.00 0.00 0.00 68 1014.2
20260509065103 17 327 0.0 0.0 0.00 0.00 0.00 68 1014.3
20260509064604 17 327 0.0 0.0 0.00 0.00 0.00 67 1014.3
20260509064103 17 327 0.0 0.0 0.00 0.00 0.00 67 1014.3
20260509063604 17 327 0.0 0.0 0.00 0.00 0.00 67 1014.3
20260509063104 17 327 0.0 0.0 0.00 0.00 0.00 66 1014.3
20260509062607 17 327 0.0 0.0 0.00 0.00 0.00 66 1014.3
20260509062104 17 327 0.0 1.6 0.00 0.00 0.00 65 1014.3
20260509061607 18 327 0.0 1.6 0.00 0.00 0.00 65 1014.3
20260509061103 18 327 0.0 0.0 0.00 0.00 0.00 65 1014.3
20260509060105 18 327 0.0 0.0 0.00 0.00 0.00 64 1014.3
20260509055104 18 327 0.0 0.0 0.00 0.00 0.00 63 1014.3
20260509053605 18 327 0.0 1.6 0.00 0.00 0.00 62 1014.3
20260509053104 18 327 0.0 3.2 0.00 0.00 0.00 62 1014.3
20260509052604 18 327 0.0 3.2 0.00 0.00 0.00 61 1014.3
20260509052104 19 327 0.0 3.2 0.00 0.00 0.00 61 1014.3
20260509051103 19 323 0.0 1.6 0.00 0.00 0.00 60 1014.3
20260509050604 20 323 0.0 3.2 0.00 0.00 0.00 60 1014.3
20260509050105 20 323 0.0 4.8 0.00 0.00 0.00 59 1014.3
20260509045104 20 319 0.0 3.2 0.00 0.00 0.00 58 1014.3
20260509044604 20 319 1.6 3.2 0.00 0.00 0.00 58 1014.3
20260509044104 20 320 1.6 3.2 0.00 0.00 0.00 57 1014.3
20260509043603 20 315 0.0 3.2 0.00 0.00 0.00 57 1014.3
20260509043104 20 315 0.0 3.2 0.00 0.00 0.00 57 1014.3
20260509041104 21 316 0.0 3.2 0.00 0.00 0.00 55 1014.0
20260509040604 21 308 0.0 3.2 0.00 0.00 0.00 55 1013.9
20260509040104 21 306 0.0 4.8 0.00 0.00 0.00 54 1013.8
20260509035604 21 312 0.0 4.8 0.00 0.00 0.00 54 1013.9
20260509035104 21 298 1.6 4.8 0.00 0.00 0.00 53 1013.8
20260509034604 22 295 1.6 8.0 0.00 0.00 0.00 52 1013.9
20260509034103 22 294 4.8 8.0 0.00 0.00 0.00 51 1013.8
20260509033604 22 291 1.6 4.8 0.00 0.00 0.00 51 1013.8
20260509033104 22 282 1.6 4.8 0.00 0.00 0.00 50 1013.7
20260509032604 22 279 0.0 4.8 0.00 0.00 0.00 50 1013.7
20260509032106 22 278 0.0 4.8 0.00 0.00 0.00 50 1013.7
20260509031604 22 278 3.2 8.0 0.00 0.00 0.00 50 1013.7
20260509031106 22 278 3.2 8.0 0.00 0.00 0.00 50 1013.7
20260509030604 22 277 3.2 8.0 0.00 0.00 0.00 50 1013.6
20260509030104 22 276 3.2 4.8 0.00 0.00 0.00 50 1013.5
20260509025604 22 274 4.8 4.8 0.00 0.00 0.00 50 1013.4
20260509025104 23 273 3.2 4.8 0.00 0.00 0.00 50 1013.3
20260509024605 23 273 3.2 4.8 0.00 0.00 0.00 49 1013.2
20260509024103 23 272 3.2 4.8 0.00 0.00 0.00 49 1013.2
20260509023604 23 272 3.2 4.8 0.00 0.00 0.00 48 1013.1
20260509022606 24 272 3.2 4.8 0.00 0.00 0.00 47 1013.1
20260509022103 25 272 3.2 8.0 0.00 0.00 0.00 47 1013.0
20260509021607 25 272 3.2 8.0 0.00 0.00 0.00 46 1013.0
20260509021103 25 269 3.2 8.0 0.00 0.00 0.00 45 1012.9
20260509020603 25 269 4.8 9.7 0.00 0.00 0.00 44 1012.9
20260509015604 26 269 4.8 9.7 0.00 0.00 0.00 42 1012.7
20260509015104 26 275 4.8 11.3 0.00 0.00 0.00 42 1012.7
20260509014604 26 295 8.0 11.3 0.00 0.00 0.00 41 1012.6
20260509014104 26 273 6.4 11.3 0.00 0.00 0.00 42 1012.6
20260509013603 26 259 8.0 11.3 0.00 0.00 0.00 41 1012.6
20260509013104 26 261 8.0 14.5 0.00 0.00 0.00 39 1012.6
20260509012604 27 262 9.7 14.5 0.00 0.00 0.00 40 1012.6
20260509012103 27 266 9.7 14.5 0.00 0.00 0.00 40 1012.6
20260509011104 27 288 9.7 16.1 0.00 0.00 0.00 38 1012.6
20260509010604 27 256 9.7 16.1 0.00 0.00 0.00 38 1012.6
20260509005604 28 266 9.7 19.3 0.00 0.00 0.00 37 1012.6
20260509005104 28 282 9.7 19.3 0.00 0.00 0.00 36 1012.5
20260509004104 28 266 9.7 19.3 0.00 0.00 0.00 37 1012.5
20260509003104 29 276 9.7 19.3 0.00 0.00 0.00 36 1012.4
20260509002605 29 288 8.0 19.3 0.00 0.00 0.00 36 1012.3
20260509002104 29 266 9.7 19.3 0.00 0.00 0.00 35 1012.4
20260509001104 29 273 9.7 19.3 0.00 0.00 0.00 33 1012.4
20260509000604 30 278 11.3 19.3 0.00 0.00 0.00 31 1012.4
20260509000104 30 263 9.7 19.3 0.00 0.00 0.00 32 1012.4
20260508234604 31 293 9.7 14.5 0.00 0.00 0.00 29 1012.3
20260508234104 31 292 8.0 12.9 0.00 0.00 0.00 27 1012.2
20260508233604 31 297 6.4 19.3 0.00 0.00 0.00 27 1012.2
20260508233104 30 267 4.8 19.3 0.00 0.00 0.00 27 1012.3
20260508232604 30 311 4.8 16.1 0.00 0.00 0.00 28 1012.3
20260508232104 31 310 9.7 16.1 0.00 0.00 0.00 29 1012.4
20260508231606 31 288 3.2 9.7 0.00 0.00 0.00 26 1012.5
20260508231104 31 257 6.4 11.3 0.00 0.00 0.00 28 1012.6
20260508230604 31 294 4.8 12.9 0.00 0.00 0.00 25 1012.7
20260508230104 31 274 4.8 12.9 0.00 0.00 0.00 21 1012.7
20260508225604 31 281 3.2 12.9 0.00 0.00 0.00 25 1012.7
20260508225104 31 271 4.8 12.9 0.00 0.00 0.00 21 1012.7
20260508224604 32 291 6.4 12.9 0.00 0.00 0.00 22 1012.8
20260508224104 31 261 0.0 12.9 0.00 0.00 0.00 20 1012.8
20260508223604 31 236 4.8 12.9 0.00 0.00 0.00 19 1012.8
20260508223104 31 279 6.4 12.9 0.00 0.00 0.00 24 1012.8
20260508222604 31 272 6.4 12.9 0.00 0.00 0.00 23 1013.0
20260508221606 31 230 4.8 12.9 0.00 0.00 0.00 24 1013.1
20260508221104 31 310 3.2 9.7 0.00 0.00 0.00 26 1013.2
20260508220604 30 258 4.8 12.9 0.00 0.00 0.00 24 1013.2
20260508220104 30 291 6.4 12.9 0.00 0.00 0.00 25 1013.2
20260508215104 30 248 4.8 11.3 0.00 0.00 0.00 25 1013.3
20260508214604 30 287 6.4 12.9 0.00 0.00 0.00 25 1013.3
20260508214104 30 272 6.4 12.9 0.00 0.00 0.00 29 1013.4
20260508213604 30 281 4.8 16.1 0.00 0.00 0.00 29 1013.4
20260508213104 30 261 8.0 16.1 0.00 0.00 0.00 27 1013.6
20260508212105 30 277 8.0 16.1 0.00 0.00 0.00 28 1013.7
20260508211607 30 308 6.4 11.3 0.00 0.00 0.00 28 1013.7
20260508211104 30 312 3.2 11.3 0.00 0.00 0.00 28 1013.7
20260508210604 29 297 3.2 11.3 0.00 0.00 0.00 30 1013.8
20260508205103 29 276 8.0 11.3 0.00 0.00 0.00 31 1013.8
20260508204105 29 238 6.4 11.3 0.00 0.00 0.00 31 1014.0
20260508203104 28 231 4.8 11.3 0.00 0.00 0.00 33 1014.1
20260508202604 28 285 4.8 11.3 0.00 0.00 0.00 32 1014.2
20260508202104 28 280 4.8 11.3 0.00 0.00 0.00 32 1014.3
20260508201606 28 295 4.8 11.3 0.00 0.00 0.00 34 1014.3
20260508201105 28 254 4.8 11.3 0.00 0.00 0.00 31 1014.3
20260508200604 28 292 4.8 11.3 0.00 0.00 0.00 34 1014.3
20260508195604 27 290 8.0 14.5 0.00 0.00 0.00 34 1014.4
20260508195104 27 271 3.2 14.5 0.00 0.00 0.00 35 1014.5
20260508194604 27 296 4.8 12.9 0.00 0.00 0.00 36 1014.6
20260508193604 27 264 6.4 11.3 0.00 0.00 0.00 32 1014.7
20260508192604 26 294 6.4 14.5 0.00 0.00 0.00 32 1014.9
20260508192105 26 296 6.4 12.9 0.00 0.00 0.00 32 1014.9
20260508191604 26 274 4.8 11.3 0.00 0.00 0.00 35 1014.8
20260508191106 26 282 4.8 11.3 0.00 0.00 0.00 39 1014.9
20260508190605 26 294 4.8 11.3 0.00 0.00 0.00 41 1014.9
20260508190105 25 284 4.8 11.3 0.00 0.00 0.00 43 1014.8
20260508185104 25 269 6.4 14.5 0.00 0.00 0.00 45 1014.8
20260508184604 25 319 8.0 14.5 0.00 0.00 0.00 47 1014.8
20260508184104 24 260 8.0 14.5 0.00 0.00 0.00 46 1014.9
20260508183605 24 304 8.0 14.5 0.00 0.00 0.00 47 1014.9
20260508183104 24 238 8.0 12.9 0.00 0.00 0.00 48 1014.9
20260508181606 23 301 6.4 11.3 0.00 0.00 0.00 49 1014.9
20260508181104 23 294 4.8 12.9 0.00 0.00 0.00 48 1015.0
20260508180604 23 276 8.0 12.9 0.00 0.00 0.00 49 1015.0
20260508180104 23 297 6.4 11.3 0.00 0.00 0.00 50 1015.0
20260508175104 22 291 6.4 9.7 0.00 0.00 0.00 50 1014.9
20260508174604 22 286 4.8 9.7 0.00 0.00 0.00 51 1014.9
20260508174104 22 292 3.2 8.0 0.00 0.00 0.00 52 1015.0
20260508173604 21 292 3.2 8.0 0.00 0.00 0.00 52 1015.0
20260508173104 21 300 3.2 4.8 0.00 0.00 0.00 54 1015.1
20260508172604 20 300 0.0 4.8 0.00 0.00 0.00 55 1015.1
20260508172104 20 300 3.2 4.8 0.00 0.00 0.00 57 1015.1
20260508171605 20 301 3.2 4.8 0.00 0.00 0.00 59 1015.2
20260508171104 19 300 1.6 8.0 0.00 0.00 0.00 62 1015.1
20260508170604 18 300 3.2 8.0 0.00 0.00 0.00 64 1015.1
20260508170104 18 301 1.6 4.8 0.00 0.00 0.00 66 1015.1
20260508165104 17 300 1.6 4.8 0.00 0.00 0.00 71 1015.3
20260508164104 17 300 3.2 4.8 0.00 0.00 0.00 75 1015.4
20260508163603 17 301 3.2 4.8 0.00 0.00 0.00 77 1015.4
20260508163105 16 300 1.6 4.8 0.00 0.00 0.00 77 1015.4
20260508162605 16 301 3.2 4.8 0.00 0.00 0.00 78 1015.5
20260508162104 16 301 3.2 4.8 0.00 0.00 0.00 79 1015.5
20260508161606 16 300 3.2 4.8 0.00 0.00 0.00 81 1015.5
20260508160104 15 306 1.6 9.7 0.00 0.00 0.00 83 1015.4
20260508155604 15 309 3.2 9.7 0.00 0.00 0.00 84 1015.5
20260508155104 15 297 3.2 9.7 0.00 0.00 0.00 85 1015.4
20260508154604 15 305 4.8 8.0 0.00 0.00 0.00 85 1015.4
20260508154104 15 291 4.8 8.0 0.00 0.00 0.00 86 1015.4
20260508153604 15 286 3.2 8.0 0.00 0.00 0.00 87 1015.3
20260508153104 14 283 3.2 4.8 0.00 0.00 0.00 88 1015.3
20260508152605 14 279 4.8 8.0 0.00 0.00 0.00 88 1015.3
20260508151604 14 285 4.8 8.0 0.00 0.00 0.00 90 1015.4
20260508151107 14 316 1.6 4.8 0.00 0.00 0.00 91 1015.4
20260508150104 13 351 0.0 3.2 0.00 0.00 0.00 91 1015.3
20260508145604 13 351 0.0 3.2 0.00 0.00 0.00 91 1015.3
20260508145104 13 18 0.0 3.2 0.00 0.00 0.00 91 1015.4
20260508144604 13 30 0.0 1.6 0.00 0.00 0.00 92 1015.4
20260508143605 12 31 0.0 1.6 0.00 0.00 0.00 93 1015.5
20260508142604 12 30 0.0 1.6 0.00 0.00 0.00 93 1015.6
20260508142104 12 30 0.0 0.0 0.00 0.00 0.00 92 1015.7
20260508141607 11 30 0.0 0.0 0.00 0.00 0.00 92 1015.7
20260508141104 11 30 0.0 0.0 0.00 0.00 0.00 92 1015.7
20260508140604 11 30 0.0 1.6 0.00 0.00 0.00 92 1015.6
20260508140105 11 30 0.0 1.6 0.00 0.00 0.00 91 1015.5
20260508135604 11 30 0.0 0.0 0.00 0.00 0.00 91 1015.6
20260508135104 11 30 0.0 0.0 0.00 0.00 0.00 91 1015.5
20260508134104 11 30 0.0 1.6 0.00 0.00 0.00 90 1015.4
20260508133604 10 30 0.0 1.6 0.00 0.00 0.00 89 1015.5
20260508132604 10 30 0.0 1.6 0.00 0.00 0.00 88 1015.4
20260508132106 10 30 0.0 1.6 0.00 0.00 0.00 88 1015.3
20260508131607 11 263 0.0 1.6 0.00 0.00 0.00 88 1015.3
20260508131104 11 253 0.0 1.6 0.00 0.00 0.00 88 1015.2
20260508130605 11 253 0.0 1.6 0.00 0.00 0.00 87 1015.0
20260508130104 11 253 0.0 1.6 0.00 0.00 0.00 87 1015.0
20260508125104 11 285 0.0 1.6 0.00 0.00 0.00 87 1015.0
20260508124604 11 300 0.0 0.0 0.00 0.00 0.00 87 1015.0
20260508124104 11 300 0.0 0.0 0.00 0.00 0.00 86 1014.9
20260508123605 11 300 0.0 0.0 0.00 0.00 0.00 86 1014.9
20260508123104 11 300 0.0 1.6 0.00 0.00 0.00 86 1014.9
20260508121104 12 301 0.0 1.6 0.00 0.00 0.00 85 1014.7
20260508120605 12 301 0.0 1.6 0.00 0.00 0.00 85 1014.6
20260508120105 12 301 0.0 1.6 0.00 0.00 0.00 85 1014.5
20260508115104 12 298 0.0 1.6 0.00 0.00 0.00 85 1014.4
20260508114104 13 298 0.0 1.6 0.00 0.00 0.00 86 1014.3
20260508113604 13 298 0.0 1.6 0.00 0.00 0.00 86 1014.3
20260508113104 13 298 0.0 1.6 0.00 0.00 0.00 86 1014.4
20260508112104 13 298 0.0 1.6 0.00 0.00 0.00 86 1014.4
20260508111606 12 298 0.0 1.6 0.00 0.00 0.00 85 1014.3
20260508111105 12 298 0.0 0.0 0.00 0.00 0.00 85 1014.3
20260508110605 12 298 0.0 0.0 0.00 0.00 0.00 85 1014.3
20260508110104 12 298 0.0 0.0 0.00 0.00 0.00 85 1014.3
20260508105604 12 298 0.0 1.6 0.00 0.00 0.00 85 1014.3
20260508104104 13 298 0.0 0.0 0.00 0.00 0.00 84 1014.7
20260508103105 13 298 0.0 1.6 0.00 0.00 0.00 84 1014.8
20260508102606 13 298 0.0 1.6 0.00 0.00 0.00 84 1014.9
20260508102104 13 298 0.0 1.6 0.00 0.00 0.00 84 1014.9
20260508101607 13 298 0.0 1.6 0.00 0.00 0.00 84 1014.9
20260508101104 13 298 0.0 1.6 0.00 0.00 0.00 83 1014.9
20260508100605 13 298 0.0 1.6 0.00 0.00 0.00 83 1014.9
20260508100104 13 298 0.0 0.0 0.00 0.00 0.00 82 1014.9
20260508095604 13 298 0.0 0.0 0.00 0.00 0.00 82 1014.9